East Midlands, United Kingdom

8:09 AM BST on September 20, 2017 (GMT +0100)
East Midlands

Weather History for EGNX - November, 2012

Change the Weather History Date:

Saturday, November 3, 2012

  Actual Average Record
Temperature  
Mean Temperature 40 °F -  
Max Temperature 46 °F 47 °F 60 °F (1996)
Min Temperature 35 °F 38 °F 30 °F (2006)
Degree Days  
Heating Degree Days 24    
Moisture  
Dew Point 35 °F    
Average Humidity 81    
Maximum Humidity 93    
Minimum Humidity 57    
Precipitation  
Precipitation 0.00 in - - ()
Sea Level Pressure  
Sea Level Pressure 29.35 in    
Wind  
Wind Speed 9 mph ()    
Max Wind Speed 17 mph    
Max Gust Speed -    
Visibility 6.0 miles    
Events Rain    
Averages and records for this station are not official NWS values.
T = Trace of Precipitation, MM = Missing Value Source: Averaged Metar Reports

Daily Weather History Graph

Daily Weather History Graph

Search for Another Location

Airport or City:

Trip Planner

Search our weather history database for the weather conditions in past years. The results will help you decide how hot, cold, wet, or windy it might be!

Date:

Astronomy

Nov. 03, 2012 Rise Set
Actual Time 7:06 AM GMT 4:30 PM GMT
Civil Twilight 6:30 AM GMT 5:06 PM GMT
Nautical Twilight 5:49 AM GMT 5:47 PM GMT
Astronomical Twilight 5:09 AM GMT 6:27 PM GMT
Moon 7:43 PM GMT (11/3) 11:16 AM GMT (11/3)
Length of Visible Light 10h 36m
Length of Day
9h 23m
Waning Gibbous, 82% of the Moon is Illuminated
Nov 3
Waning Gibbous
Nov 7
Last Quarter
Nov 13
New
Nov 20
First Quarter
Nov 28
Full

Hourly Weather History & Observations

Time (GMT) Temp. Windchill Dew Point Humidity Pressure Visibility Wind Dir Wind Speed Gust Speed Precip Events Conditions
12:20 AM 41.0 °F 33.9 °F 35.6 °F 81% 29.30 in - SW 12.7 mph - N/A   Clear
12:50 AM 39.2 °F 33.0 °F 35.6 °F 87% 29.33 in - SSW 9.2 mph - N/A   Clear
1:20 AM 39.2 °F 33.0 °F 35.6 °F 87% 29.30 in - SW 9.2 mph - N/A   Clear
1:50 AM 39.2 °F 32.0 °F 35.6 °F 87% 29.30 in - SW 11.5 mph - N/A   Clear
2:20 AM 39.2 °F 33.6 °F 35.6 °F 87% 29.30 in - SSW 8.1 mph - N/A   Clear
2:50 AM 37.4 °F 32.8 °F 33.8 °F 87% 29.30 in - South 5.8 mph - N/A   Clear
3:20 AM 37.4 °F 33.8 °F 33.8 °F 87% 29.30 in - SSW 4.6 mph - N/A   Clear
3:50 AM 37.4 °F 32.8 °F 33.8 °F 87% 29.30 in - South 5.8 mph - N/A   Clear
4:20 AM 35.6 °F 32.8 °F 33.8 °F 93% 29.27 in - Variable 3.5 mph - N/A   Clear
4:50 AM 37.4 °F 32.8 °F 33.8 °F 87% 29.27 in - South 5.8 mph - N/A   Clear
5:20 AM 37.4 °F 32.1 °F 33.8 °F 87% 29.27 in - South 6.9 mph - N/A   Clear
5:50 AM 37.4 °F 32.1 °F 33.8 °F 87% 29.27 in 6.2 mi South 6.9 mph - N/A   Scattered Clouds
6:20 AM 37.4 °F 32.8 °F 33.8 °F 87% 29.27 in 6.2 mi SSW 5.8 mph - N/A   Scattered Clouds
6:50 AM 37.4 °F 33.8 °F 33.8 °F 87% 29.27 in 6.2 mi South 4.6 mph - N/A   Scattered Clouds
7:20 AM 37.4 °F 33.8 °F 35.6 °F 93% 29.27 in 6.2 mi SSW 4.6 mph - N/A   Scattered Clouds
7:50 AM 39.2 °F 35.0 °F 35.6 °F 87% 29.27 in 5.6 mi South 5.8 mph - N/A Rain Light Rain
8:20 AM 39.2 °F 35.0 °F 35.6 °F 87% 29.27 in 5.6 mi SW 5.8 mph - N/A Rain Light Rain
8:50 AM 39.2 °F 33.6 °F 37.4 °F 93% 29.30 in 5.6 mi SSW 8.1 mph - N/A Rain Light Rain
9:20 AM 39.2 °F 33.6 °F 37.4 °F 93% 29.30 in 5.0 mi SSW 8.1 mph - N/A Rain Light Rain
9:50 AM 39.2 °F 32.5 °F 37.4 °F 93% 29.30 in 5.0 mi SW 10.4 mph - N/A Rain Light Rain
10:20 AM 39.2 °F 32.0 °F 37.4 °F 93% 29.30 in 5.0 mi West 11.5 mph - N/A Rain Light Rain
10:50 AM 42.8 °F 36.2 °F 39.2 °F 87% 29.33 in 6.2 mi WSW 12.7 mph - N/A   Mostly Cloudy
11:20 AM 42.8 °F 35.8 °F 39.2 °F 87% 29.33 in 6.2 mi WSW 13.8 mph - N/A   Mostly Cloudy
11:50 AM 42.8 °F 35.1 °F 39.2 °F 87% 29.33 in 6.2 mi West 16.1 mph - N/A   Scattered Clouds
12:20 PM 44.6 °F 38.1 °F 39.2 °F 81% 29.33 in 6.2 mi WSW 13.8 mph - N/A   Scattered Clouds
12:50 PM 44.6 °F 37.2 °F 37.4 °F 76% 29.36 in 6.2 mi WSW 17.3 mph - N/A   Mostly Cloudy
1:20 PM 46.4 °F 40.7 °F 37.4 °F 71% 29.36 in 6.2 mi West 12.7 mph - N/A   Scattered Clouds
1:50 PM 44.6 °F 37.2 °F 35.6 °F 71% 29.36 in 6.2 mi West 17.3 mph - N/A   Scattered Clouds
2:20 PM 46.4 °F 40.4 °F 33.8 °F 62% 29.36 in 6.2 mi WSW 13.8 mph - N/A   Scattered Clouds
2:50 PM 46.4 °F 40.7 °F 32.0 °F 57% 29.36 in 6.2 mi WSW 12.7 mph - N/A   Scattered Clouds
3:20 PM 44.6 °F 38.8 °F 32.0 °F 61% 29.39 in 6.2 mi SW 11.5 mph - N/A   Partly Cloudy
3:50 PM 44.6 °F 41.4 °F 33.8 °F 66% 29.39 in 6.2 mi SSW 5.8 mph - N/A   Partly Cloudy
4:20 PM 42.8 °F 38.0 °F 33.8 °F 70% 29.39 in - SSW 8.1 mph - N/A   Clear
4:50 PM 42.8 °F 37.5 °F 33.8 °F 70% 29.39 in 6.2 mi SSW 9.2 mph - N/A   Partly Cloudy
5:20 PM 42.8 °F 37.0 °F 33.8 °F 70% 29.42 in 6.2 mi SSW 10.4 mph - N/A   Scattered Clouds
5:50 PM 41.0 °F 35.2 °F 33.8 °F 76% 29.42 in 6.2 mi SW 9.2 mph - N/A   Scattered Clouds
6:20 PM 41.0 °F 36.4 °F 33.8 °F 76% 29.42 in 6.2 mi South 6.9 mph - N/A   Scattered Clouds
6:50 PM 39.2 °F 33.6 °F 33.8 °F 81% 29.42 in 6.2 mi South 8.1 mph - N/A   Scattered Clouds
7:20 PM 41.0 °F 35.2 °F 35.6 °F 81% 29.42 in 6.2 mi SSW 9.2 mph - N/A   Scattered Clouds
7:50 PM 41.0 °F 34.3 °F 35.6 °F 81% 29.42 in 6.2 mi SSW 11.5 mph - N/A   Partly Cloudy
8:20 PM 41.0 °F 33.9 °F 35.6 °F 81% 29.42 in 6.2 mi SSW 12.7 mph - N/A   Partly Cloudy
8:50 PM 41.0 °F 34.3 °F 35.6 °F 81% 29.42 in - SSW 11.5 mph - N/A   Clear
9:20 PM 41.0 °F 34.3 °F 33.8 °F 76% 29.42 in - SSW 11.5 mph - N/A   Clear
9:50 PM 39.2 °F 31.2 °F 33.8 °F 81% 29.42 in - SSW 13.8 mph - N/A   Clear
10:20 PM 39.2 °F 31.6 °F 33.8 °F 81% 29.44 in - SSW 12.7 mph - N/A   Clear
10:50 PM 39.2 °F 31.6 °F 32.0 °F 75% 29.44 in - SSW 12.7 mph - N/A   Clear
11:20 PM 37.4 °F 30.3 °F 32.0 °F 81% 29.44 in - SSW 10.4 mph - N/A   Clear
11:50 PM 37.4 °F 31.4 °F 32.0 °F 81% 29.44 in - SSW 8.1 mph - N/A   Clear